Location: Bacea
(45.9500°N, 22.6667°E)
Time: 05:42:17
(UTC+00:00)

Cosmos 1953 - Pass Details

Date: 29 May 2022
Orbit: 533 x 555 km, 82.5° (Epoch: 03 July)

Event Time Altitude Azimuth Distance (km) Brightness Sun altitude
Rises 23:21:24 0° 340° (NNW) 2,722 6.8 -21.2°
Reaches altitude 10° 23:23:46 10° 329° (NNW) 1,819 5.6 -21.1°
Enters shadow 23:27:10 28° 271° (W) 1,034 3.5 -20.9°
